Home   Weather   Lompoc   Past weeks
Flag for USA

Past Weather in Lompoc, California, USA — Yesterday and Last 2 Weeks

Now
59 °F

Clear.


Feels Like: 58 °F
Forecast: 76 / 54 °F
Wind: 8 mph from West

Location: Lompoc Weather Reporting System

Current Time: Oct 19, 2019 at 8:51:37 pm

Latest Report: Oct 19, 2019 at 7:56 pm


Visibility: 10 mi

Pressure: 29.98 "Hg

Humidity: 84%

Dew Point: 54 °F

Location of LompocLocation

Past Weather in Lompoc — Graph

°F

Lompoc Temperature Yesterday

Maximum temperature yesterday: 75 °F (at 11:56 am)
Minimum temperature yesterday: 50 °F (at 5:56 am)
Average temperature yesterday: 60 °F

High & Low Weather Summary for the Past Weeks

 TemperatureHumidityPressure
High84 °F (Oct 6, 1:56 pm)100% (Oct 8, 9:03 am)30.08 "Hg (Oct 8, 9:03 am)
Low38 °F (Oct 13, 6:56 am)10% (Oct 12, 2:56 pm)29.84 "Hg (Oct 12, 4:56 pm)
Average57 °F72%29.95 "Hg
* Reported Oct 4 6:56 pm — Oct 19 6:56 pm, Lompoc. Weather by CustomWeather, © 2019

Note: Actual official high and low records may vary slightly from our data, if they occured in-between our weather recording intervals... More about our weather records

Advertising

Lompoc Weather History for the Previous 24 Hours

Scroll right to see more
 ConditionsComfort  
Time TempWeatherWind HumidityBarometerVisibility
6:56 pm
Sat, Oct 19
60 °FClear.9 mph80%29.97 "Hg10 mi
5:56 pm62 °FSunny.14 mph73%29.96 "Hg10 mi
4:56 pm65 °FSunny.16 mph66%29.96 "Hg10 mi
3:56 pm70 °FSunny.20 mph42%29.95 "Hg10 mi
2:56 pm71 °FSunny.17 mph38%29.97 "Hg10 mi
1:56 pm71 °FSunny.18 mph38%29.99 "Hg10 mi
12:56 pm74 °FSunny.17 mph38%30.01 "Hg10 mi
11:56 am70 °FSunny.13 mph49%30.01 "Hg10 mi
10:56 am71 °FSunny.9 mph49%30.02 "Hg10 mi
9:56 am66 °FSunny.7 mph59%30.03 "Hg10 mi
8:56 am60 °FSunny.7 mph72%30.01 "Hg10 mi
7:56 am49 °FSunny.3 mph93%30.01 "Hg10 mi
6:56 am47 °FClear.3 mph93%29.99 "Hg9 mi
5:56 am43 °FClear.No wind93%29.98 "Hg9 mi
4:56 am43 °FClear.No wind93%29.98 "Hg9 mi
3:56 am44 °FClear.No wind93%29.99 "Hg10 mi
2:56 am45 °FClear.No wind90%30.00 "Hg10 mi
1:56 am47 °FClear.No wind93%30.01 "Hg10 mi
12:56 am48 °FClear.No wind93%30.02 "Hg10 mi
11:56 pm
Fri, Oct 18
54 °FClear.7 mph83%30.02 "Hg10 mi
10:56 pm54 °FClear.5 mph86%30.02 "Hg10 mi
9:56 pm55 °FClear.9 mph87%30.02 "Hg10 mi
8:56 pm55 °FClear.8 mph90%30.02 "Hg10 mi
Weather by CustomWeather, © 2019

See weather overview